TimePDT,TemperatureF,Dew PointF,Humidity,Sea Level PressureIn,VisibilityMPH,Wind Direction,Wind SpeedMPH,Gust SpeedMPH,PrecipitationIn,Events,Conditions,WindDirDegrees,DateUTC
12:53 AM,63.0,30.9,30,29.76,10.0,West,21.9,28.8,N/A,,Clear,270,2012-05-18 07:53:00
1:53 AM,61.0,32.0,34,29.76,10.0,WSW,13.8,-,N/A,,Clear,250,2012-05-18 08:53:00
2:53 AM,61.0,34.0,36,29.75,10.0,West,20.7,-,N/A,,Clear,260,2012-05-18 09:53:00
3:53 AM,55.9,42.1,60,29.75,10.0,SW,10.4,-,N/A,,Clear,230,2012-05-18 10:53:00
4:53 AM,57.0,37.0,47,29.76,10.0,North,9.2,-,N/A,,Clear,350,2012-05-18 11:53:00
5:53 AM,57.0,33.1,40,29.78,10.0,WNW,16.1,-,N/A,,Clear,300,2012-05-18 12:53:00
6:53 AM,57.2,30.2,36,29.88,10.0,WNW,12.7,-,N/A,,Clear,290,2012-05-18 13:53:00
7:53 AM,62.1,32.0,32,29.83,10.0,WNW,15.0,-,N/A,,Clear,290,2012-05-18 14:53:00
8:53 AM,66.0,33.1,29,29.83,10.0,WNW,13.8,-,N/A,,Clear,290,2012-05-18 15:53:00
9:53 AM,70.0,30.9,24,29.82,10.0,WNW,13.8,-,N/A,,Clear,290,2012-05-18 16:53:00
10:53 AM,73.0,30.0,20,29.81,10.0,West,20.7,25.3,N/A,,Clear,280,2012-05-18 17:53:00
11:53 AM,75.9,28.0,17,29.82,10.0,WNW,23.0,32.2,N/A,,Clear,290,2012-05-18 18:53:00
12:53 PM,77.0,27.0,16,29.81,10.0,WNW,21.9,31.1,N/A,,Clear,300,2012-05-18 19:53:00
1:53 PM,79.0,28.0,15,29.80,10.0,WNW,19.6,29.9,N/A,,Clear,290,2012-05-18 20:53:00
2:53 PM,80.1,30.0,16,29.79,10.0,West,27.6,-,N/A,,Clear,280,2012-05-18 21:53:00
3:53 PM,79.0,32.0,18,29.80,10.0,West,27.6,34.5,N/A,,Clear,280,2012-05-18 22:53:00
4:53 PM,78.1,30.0,17,29.79,10.0,West,24.2,-,N/A,,Clear,270,2012-05-18 23:53:00
5:53 PM,77.0,30.0,18,29.80,10.0,WNW,18.4,-,N/A,,Clear,290,2012-05-19 00:53:00
6:53 PM,73.0,30.9,21,29.80,10.0,WNW,25.3,29.9,N/A,,Clear,290,2012-05-19 01:53:00
7:53 PM,69.1,30.0,23,29.83,10.0,West,16.1,-,N/A,,Clear,280,2012-05-19 02:53:00
8:53 PM,66.9,28.9,24,29.84,10.0,West,13.8,-,N/A,,Clear,270,2012-05-19 03:53:00
9:53 PM,64.9,28.0,25,29.85,10.0,SW,10.4,-,N/A,,Clear,230,2012-05-19 04:53:00
10:53 PM,61.0,28.0,29,29.86,10.0,SW,8.1,-,N/A,,Clear,220,2012-05-19 05:53:00
11:53 PM,60.1,28.0,30,29.86,10.0,SW,8.1,-,N/A,,Clear,220,2012-05-19 06:53:00